Content
SEND FEEDBACK

Daily
Averages
Monthly
Summary
Canada

BEDFORD, QUEBEC


Home > North America > Canada > Quebec
Elevation: 174 feet     Latitude: 45 28N     Longitude: 073 45W

WEATHER
 
SELECT A DAY
Number of Records: 198,114;   Date Range: 1/1/95 - 7/27/14
 
SHARE

PRINT THIS DATA

[ ← Previous Day ]
WEATHER ALMANAC - MARCH 29, 2013
[ Next Day → ]
[ °C ]   °F
Weather ElementAverageHighLow
Temperature41.4 °F46.4 °F (1:00 pm)37.4 °F (7:00 am)
Dewpoint31.9 °F34 °F (2:00 am)30.2 °F (10:00 am)
Humidity68.4 %87 % (7:00 am)45 % (2:00 pm)
Barometer30.06 in30.08 in (8:00 am)30.03 in (4:00 pm)
Wind Speed10 mph17.3 mph (3:00 pm)
Wind Gust20.7 mph (5:00 pm)
Weather ElementAverage
Visibility15 mi
Wind DirectionWSW (252.6 °)

Weather ElementTotal
Precipitation---
Heating Degree Days23.1 (Base 65)
Averaged from 27 records on March 29, 2013
WEATHER CONDITIONS BREAKOUT
WIND DIRECTION BREAKOUT
WEATHER BY HOUR - MARCH 29, 2013
[ °C ]   °F
Local TimeTemperatureDewpointHumidityBarometerVisibilityWind DirectionWind SpeedGust SpeedPrecipitationEventsConditions
1:00 AM39.2 °F33.8 °F81 %30.05 in15.0 miSW (220°)9.2 mphOvercast
2:00 AM39.0 °F34.0 °F76 %30.05 in15.0 miSW (230°)5.8 mphRainLight Rain Showers
2:00 AM39.2 °F33.8 °F81 %30.05 in15.0 miSW (230°)6.9 mphRainLight Rain Showers
3:00 AM39.2 °F33.8 °F81 %30.05 in15.0 miWSW (240°)6.9 mphRainLight Rain Showers
4:00 AM39.2 °F33.8 °F81 %30.05 in15.0 miWest (280°)4.6 mphRainLight Rain Showers
5:00 AM39.2 °F33.8 °F81 %30.06 in15.0 miWest (260°)5.8 mphOvercast
6:00 AM39.2 °F33.8 °F81 %30.06 in15.0 miWest (260°)8.1 mphOvercast
7:00 AM37.4 °F33.8 °F87 %30.07 in15.0 miWSW (250°)8.1 mphOvercast
8:00 AM39.0 °F33.0 °F71 %30.08 in15.0 miWest (260°)6.9 mphPartly Cloudy
8:00 AM39.2 °F33.8 °F81 %30.08 in15.0 miWest (260°)6.9 mphMostly Cloudy
9:00 AM41.0 °F32.0 °F70 %30.08 in15.0 miWest (270°)8.1 mphOvercast
10:00 AM41.0 °F30.2 °F65 %30.08 in15.0 miWest (270°)10.4 mphOvercast
11:00 AM44.6 °F30.2 °F57 %30.08 in15.0 miWSW (250°)11.5 mphMostly Cloudy
12:00 PM44.6 °F32.0 °F61 %30.07 in15.0 miWest (260°)10.4 mph18.4 mphMostly Cloudy
1:00 PM46.4 °F30.2 °F53 %30.06 in15.0 miWest (260°)10.4 mphMostly Cloudy
2:00 PM46.0 °F31.0 °F45 %30.05 in15.0 miWest (270°)12.7 mphMostly Cloudy
2:00 PM46.4 °F32.0 °F57 %30.05 in15.0 miWest (270°)12.7 mph18.4 mphMostly Cloudy
3:00 PM44.6 °F30.2 °F57 %30.04 in15.0 miWest (260°)17.3 mphMostly Cloudy
4:00 PM46.4 °F30.2 °F53 %30.03 in15.0 miWest (260°)15.0 mphOvercast
5:00 PM44.6 °F30.2 °F57 %30.03 in15.0 miWest (260°)13.8 mph20.7 mphOvercast
6:00 PM46.4 °F32.0 °F57 %30.04 in15.0 miWSW (240°)16.1 mphMostly Cloudy
7:00 PM42.8 °F32.0 °F66 %30.04 in15.0 miSW (230°)11.5 mphMostly Cloudy
8:00 PM40.0 °F31.0 °F59 %30.06 in15.0 miWSW (240°)10.4 mphPartly Cloudy
8:00 PM39.2 °F30.2 °F70 %30.06 in15.0 miWSW (240°)9.2 mphMostly Cloudy
9:00 PM39.2 °F30.2 °F70 %30.06 in15.0 miWSW (250°)11.5 mphMostly Cloudy
10:00 PM37.4 °F30.2 °F75 %30.07 in15.0 miWSW (250°)11.5 mphScattered Clouds
11:00 PM37.4 °F30.2 °F75 %30.08 in15.0 miWSW (250°)9.2 mphMostly Cloudy
Hourly data recorded from CYUL, located miles away from Bedford, Quebec







STORIES FROM OUR PARTNERS